Location: G�ndlingen
(48.0142°N, 7.6396°E)
Time: 18:11:04
(UTC+00:00)

Resurs 1-4 Rocket - Pass Details

Date: 05 July 2020
Orbit: 800 x 814 km, 98.6° (Epoch: 12 August)

Event Time Altitude Azimuth Distance (km) Brightness Sun altitude
Rises 23:39:21 0° 30° (NNE) 3,350 6.4 -19.3°
Reaches altitude 10° 23:42:54 10° 55° (NE) 2,411 5.1 -19.3°
Maximum altitude 23:45:44 14° 87° (E) 2,107 4.3 -19.3°
Drops below altitude 10° 23:48:33 10° 120° (ESE) 2,398 4.3 -19.3°
Enters shadow 23:48:45 10° 121° (ESE) 2,438 4.3 -19.2°
